* Astronomy

Members Login
Post Info TOPIC: Asteroid 2012 CG


L

Posts: 131433
Date:
RE: Asteroid 2012 CG
Permalink  
 


Orbital elements:
2012 CG
Epoch 2012 Mar. 14.0 TT = JDT 2456000.5                 MPC
M  24.65479              (2000.0)            P               Q
n   0.00630198     Peri.  293.50146     +0.44240359     -0.87504037
a  29.0280700      Node   128.75837     +0.88693561     +0.39448310
e   0.5018676      Incl.   14.58973     +0.13275648     +0.28051281
P 156.40           H    9.4           G   0.15           U   2

MPEC 2012 - D49



__________________


L

Posts: 131433
Date:
Permalink  
 

Orbital elements:
2012 CG
Epoch 2012 Jan. 14.0 TT = JDT 2455940.5                 MPC
M 137.21202              (2000.0)            P               Q
n   0.01412677     Peri.  212.88336     +0.93221219     +0.26435404
a  16.9475734      Node   129.74150     -0.22146404     +0.95685349
e   0.2022784      Incl.   18.75096     -0.28624135     +0.12061647
P  69.8            H    8.7           G   0.15
From 13 observations 2012 Feb. 1-3

MPEC 2012 - C16



__________________
Page 1 of 1  sorted by
Quick Reply

Please log in to post quick replies.



Create your own FREE Forum
Report Abuse
Powered by ActiveBoard